KUIPER-00058

Last updated on Thu Jul 03 2025 00:02:08 GMT+0000 (Coordinated Universal Time)

1 64518U 25134U 25183.58335648 .00001974 00000+0 67653-4 0 9991 2 64518 51.8729 286.9539 0005496 139.0189 323.8720 15.35332191 1790
UTC large
Height (km)
Speed (km/s)
/
Latitude / Longitude
Inclination (degrees)
Orbital Period (minutes)
Azimuth
Elevation
Range (km)
Doppler Factor

Next 0 passes for location: London (51.5072 / 0.1276)

Sorry there are no passes over London.